Theta_e
308 309 309 309 310 310 310 310 310 310 310 311 311 311 311 311 311 310 310 310 310 310 310 310 310 310 310 310 310 311 311 311 312 314 319 320 316 315 314 312 313 312 312 312 312 313 313 314 315 315 315 316 318 318 317 316 317 319 323 324 321 323 322 320 321 319 320 318 316 316 316 317 316 316 315 316 316 316 317 317 317 317 315 315 316 315 315 316
308 309 309 309 310 310 310 310 310 310 310 311 310 311 311 311 311 311 311 310 311 311 310 310 310 310 309 309 310 310 311 310 313 317 319 318 314 313 313 312 313 312 312 312 312 315 315 316 315 315 317 317 317 318 319 317 316 320 324 322 321 323 320 319 319 318 320 318 316 316 317 317 317 316 315 315 315 316 317 317 317 317 316 315 315 315 315 315
308 309 309 309 309 309 310 310 310 310 310 310 311 311 311 311 311 311 311 311 311 310 310 310 310 310 309 309 310 310 311 311 313 318 317 314 314 313 312 312 313 312 313 312 313 315 315 316 315 315 317 317 316 317 320 320 317 319 323 322 321 320 318 318 318 317 318 318 317 317 317 317 317 316 316 316 316 316 316 317 316 317 317 316 315 315 315 315
308 309 309 309 309 310 310 310 310 310 310 310 311 311 311 311 311 311 310 310 311 310 310 310 310 310 309 309 310 310 312 313 315 318 316 314 314 313 313 313 313 313 313 312 312 314 315 316 315 315 317 316 316 316 318 319 318 319 319 320 319 318 318 317 317 317 318 318 318 317 317 317 317 317 317 316 316 316 317 317 317 317 317 317 316 316 315 315
308 309 309 309 309 309 310 310 310 310 310 310 311 311 311 311 311 311 310 310 311 311 310 310 310 309 309 309 309 310 313 316 317 318 315 314 314 313 313 313 313 314 313 313 313 313 314 316 316 316 317 317 317 317 317 317 317 318 317 317 317 317 318 316 316 316 317 318 318 317 316 317 317 317 317 317 317 317 318 318 317 318 318 318 317 317 316 315
308 309 309 309 309 310 310 310 310 310 310 310 311 311 311 311 311 310 310 311 310 311 310 310 310 309 309 310 309 310 315 317 317 317 315 313 314 314 315 315 315 315 314 313 313 314 315 316 316 316 317 317 317 317 317 316 317 318 317 316 317 317 317 316 315 316 317 318 317 317 317 317 317 316 317 316 316 317 318 318 317 318 318 318 318 317 317 316
309 308 309 309 309 309 310 310 310 310 310 310 311 311 311 311 311 310 310 310 310 311 311 310 310 309 309 309 309 310 314 317 316 315 314 314 315 315 316 316 316 316 315 314 315 315 315 316 316 317 317 317 317 317 317 316 316 318 317 316 316 317 316 315 315 315 316 317 317 317 317 317 317 316 317 316 316 317 317 317 317 317 316 316 316 316 316 316
309 308 309 309 309 309 310 310 310 310 310 310 311 311 311 311 311 310 310 310 311 310 310 311 309 309 309 309 310 312 313 316 316 314 314 314 315 315 315 315 316 316 315 316 317 316 316 317 316 317 318 318 318 317 317 316 316 317 317 317 317 316 315 315 314 315 316 316 316 316 316 316 316 316 317 317 317 316 317 317 316 317 316 316 315 315 315 315
309 309 309 309 309 309 310 310 310 310 310 311 310 311 311 311 311 310 310 310 310 310 310 310 309 309 310 309 311 316 317 316 315 314 314 315 315 315 314 314 315 316 316 317 316 317 317 317 317 318 318 318 318 317 317 318 317 317 317 317 317 316 315 315 315 315 316 316 316 316 316 317 317 316 316 317 317 317 317 317 316 317 316 316 315 315 316 315
309 308 308 309 309 309 310 310 310 310 310 310 311 311 311 311 310 310 310 310 310 310 310 310 309 309 309 310 312 315 317 316 314 314 315 315 315 314 313 313 314 315 317 317 316 317 317 318 318 317 318 318 318 317 317 318 318 317 317 317 317 316 316 316 316 315 316 316 315 316 317 317 317 316 317 318 318 317 317 317 317 317 316 316 316 315 316 316
309 309 309 309 309 309 309 310 310 310 310 310 310 311 311 311 310 310 309 310 310 310 310 310 309 309 309 311 313 315 315 315 313 314 315 315 314 313 313 313 314 315 317 317 316 317 317 318 318 317 318 318 317 317 317 317 318 317 318 318 317 317 317 316 317 316 316 317 316 316 317 317 317 317 318 318 319 318 317 318 317 317 317 317 317 316 316 316
309 309 309 309 309 309 309 310 310 310 310 310 310 310 311 311 310 309 309 309 310 310 310 309 309 310 309 310 313 315 315 314 313 313 314 313 313 313 313 314 315 315 316 317 316 316 317 316 317 317 317 317 317 317 317 317 318 317 318 318 318 318 317 316 317 317 316 317 316 316 317 318 318 318 318 318 319 319 318 318 318 318 318 318 317 317 317 317
309 309 309 308 309 309 309 310 310 310 310 310 310 310 311 310 310 310 308 308 309 309 309 309 309 309 310 311 313 314 315 313 313 313 313 313 312 313 314 315 315 315 316 316 316 316 317 316 317 317 318 318 317 317 317 317 317 318 318 318 319 318 318 318 317 317 316 316 317 316 318 320 318 318 318 318 318 318 318 318 318 318 318 318 318 317 318 317
309 309 309 309 309 309 309 310 310 309 309 309 310 310 310 310 310 309 308 307 308 308 309 309 309 309 310 314 315 314 314 313 313 313 313 313 312 313 315 316 315 316 316 316 317 317 316 316 317 317 317 318 317 317 317 317 317 318 318 318 320 319 318 319 318 318 317 316 317 316 318 320 318 319 318 319 319 318 318 318 318 318 318 319 318 318 318 318
309 309 309 309 308 309 309 309 310 309 309 309 309 310 310 310 309 308 307 306 307 308 309 308 308 310 311 314 314 313 314 314 313 313 313 313 312 313 315 316 315 315 316 316 317 317 316 317 317 317 317 316 317 318 318 318 317 318 318 318 320 319 318 319 317 317 317 316 316 317 319 319 318 319 319 319 319 318 318 318 318 318 319 319 319 318 318 318
309 309 309 309 308 309 309 309 309 309 309 309 309 310 310 310 308 307 306 306 307 307 308 308 309 310 313 315 315 313 314 314 314 313 313 313 313 315 315 315 315 315 315 316 316 317 317 317 317 317 316 316 317 319 320 318 318 319 318 318 320 320 319 319 317 317 318 317 316 317 318 319 318 319 319 319 318 318 318 318 318 319 319 319 319 319 319 318
309 309 309 308 309 309 309 309 309 309 309 309 309 310 310 309 307 305 306 306 307 307 308 311 311 310 312 315 316 314 313 314 314 314 313 313 314 315 315 316 315 314 315 315 316 317 317 316 317 317 316 317 318 319 320 319 318 320 319 318 320 321 318 317 318 317 317 317 317 318 318 317 318 318 318 319 318 318 318 318 318 318 319 319 319 319 319 319
310 309 309 308 308 309 309 309 309 309 309 309 309 309 309 307 305 305 306 306 307 307 308 312 313 312 312 313 315 315 313 313 314 314 314 312 313 315 316 317 316 315 315 316 316 317 317 316 316 318 318 317 318 319 321 320 319 320 320 318 318 319 318 316 318 318 317 317 317 318 318 317 318 317 317 318 318 318 318 318 318 318 318 318 318 318 319 319
311 309 309 309 309 309 309 309 309 308 308 308 308 307 306 305 305 305 306 306 308 309 309 311 312 313 313 312 314 316 314 312 313 314 314 313 313 315 316 317 316 316 316 317 317 316 318 317 317 320 321 318 318 319 320 320 317 318 320 319 318 318 317 317 317 317 316 317 317 317 317 316 317 317 317 317 318 318 318 319 318 318 318 318 318 318 318 319
310 310 308 309 309 308 309 308 308 308 307 307 306 306 306 307 307 308 309 309 308 311 313 311 311 313 315 313 314 316 314 313 313 314 314 313 313 315 316 317 317 317 317 319 320 318 318 320 321 322 321 318 318 318 318 317 316 316 318 318 318 318 318 317 318 316 316 317 318 317 317 317 317 317 317 317 318 318 317 318 318 318 319 319 318 318 318 318
309 309 308 308 308 308 309 308 307 307 306 306 305 306 308 309 309 311 312 310 309 312 314 313 312 314 315 314 314 315 313 313 314 314 314 314 314 316 317 317 317 317 318 319 319 317 318 321 323 321 319 318 317 317 317 316 315 316 317 319 319 319 319 318 319 317 316 318 319 318 317 317 317 317 317 317 318 318 317 317 318 318 319 319 319 319 319 319
309 308 308 307 308 308 308 307 307 306 305 306 305 308 311 309 311 313 311 309 309 310 312 313 314 314 314 313 314 314 315 315 316 315 313 314 315 316 317 317 317 318 318 318 318 319 319 320 321 318 317 317 317 317 316 316 317 318 318 319 320 321 320 319 319 318 316 318 319 319 318 317 317 318 317 317 317 318 318 318 318 318 318 318 319 319 319 319
308 307 307 307 307 307 307 306 306 305 305 306 305 309 312 310 312 314 310 310 311 309 310 312 313 314 313 313 313 314 316 316 316 316 313 314 316 316 316 316 316 318 318 318 319 320 319 319 318 317 317 317 317 316 316 316 318 319 319 319 320 323 321 318 319 319 317 318 319 321 320 318 318 319 318 317 317 317 318 319 318 319 319 319 319 319 320 320
309 307 306 306 306 306 306 305 305 305 305 306 306 309 312 311 311 311 310 312 313 312 310 310 313 314 313 313 312 314 316 316 317 316 313 314 316 316 316 316 315 318 318 316 317 319 319 317 317 317 318 318 317 317 318 317 317 321 322 321 320 321 320 318 319 321 319 319 321 322 322 321 321 322 320 319 318 318 318 319 319 319 319 319 319 319 320 320
310 308 308 306 305 306 305 305 305 305 305 305 306 309 310 312 311 310 311 313 315 315 311 310 312 313 313 313 312 314 315 315 317 317 313 314 316 316 317 317 315 316 317 317 317 317 318 317 317 320 319 318 319 318 320 320 317 320 323 323 321 320 321 322 324 324 321 320 323 323 322 323 324 324 323 322 322 321 319 319 319 320 319 319 320 320 320 320
310 309 309 307 305 306 305 306 306 305 306 306 306 309 309 311 311 309 311 314 314 313 311 311 312 312 313 313 313 314 314 315 317 317 314 314 316 316 316 316 315 316 317 317 316 317 318 316 319 323 322 321 321 319 322 323 317 317 322 326 324 322 323 324 324 324 322 320 322 324 322 320 319 320 323 324 325 325 322 321 320 319 320 320 320 321 320 320
311 310 309 308 307 306 306 308 307 305 307 307 306 309 309 310 310 310 312 314 314 313 312 312 311 311 312 313 313 313 313 315 317 317 315 314 316 316 315 315 315 315 316 318 319 319 319 319 322 323 323 325 323 320 323 322 318 320 324 326 324 322 323 324 324 324 324 322 323 324 323 320 318 318 321 322 324 325 323 323 321 319 320 320 321 321 321 321
312 311 310 309 308 307 308 311 309 306 307 307 307 308 309 310 310 310 312 314 315 314 313 312 311 313 313 312 313 313 314 316 316 317 315 314 316 315 314 315 315 316 316 318 319 319 319 322 324 323 323 323 322 323 325 322 321 323 324 324 324 324 324 324 323 324 325 324 324 325 324 323 322 319 319 320 321 322 322 322 321 319 319 320 321 322 322 321
312 311 310 310 310 309 310 313 311 308 308 308 308 308 310 310 311 312 312 313 316 314 313 312 312 315 314 313 314 314 314 315 316 317 315 314 316 315 314 315 315 316 316 317 320 321 319 318 320 322 322 322 320 322 326 325 323 322 322 324 325 325 323 323 322 323 325 323 323 327 326 320 318 318 320 320 320 321 322 322 321 318 320 322 322 323 322 322
312 312 311 310 310 310 311 312 311 309 309 309 309 308 310 311 311 312 311 312 316 315 311 311 313 315 315 314 314 313 313 315 316 316 315 315 315 315 315 315 315 318 319 319 321 319 316 314 316 319 320 319 317 317 320 324 322 320 322 325 324 323 323 324 323 322 324 323 323 328 326 317 315 320 323 321 321 323 321 321 321 319 320 322 323 323 322 321
312 313 312 311 310 310 310 311 310 309 309 309 309 308 310 312 312 311 311 312 316 316 311 311 314 314 314 313 314 313 313 315 315 315 315 316 315 315 316 316 317 321 321 320 321 319 317 317 317 317 316 316 318 318 318 319 319 321 324 324 322 324 325 324 323 322 324 324 323 326 325 318 316 320 323 321 322 322 321 320 321 320 320 320 323 324 322 321
313 312 313 311 311 310 310 311 311 309 310 309 309 309 310 314 313 313 313 312 314 316 314 313 315 314 313 314 314 313 314 316 315 315 316 316 316 315 316 316 318 321 320 319 321 321 321 321 318 316 315 315 320 323 320 317 320 324 324 323 322 322 324 325 326 326 326 323 322 324 325 320 317 319 322 322 321 321 320 320 320 320 319 319 322 323 322 321
315 314 314 312 312 311 310 311 311 310 310 309 309 311 313 312 311 313 313 311 315 318 316 315 315 314 314 315 315 314 315 317 315 316 316 317 317 316 316 317 316 318 319 319 320 320 321 322 320 318 316 316 319 322 321 319 321 323 323 325 324 320 320 322 323 326 326 322 321 322 324 324 320 320 322 321 320 320 319 319 320 319 318 319 319 320 322 321
317 316 316 314 313 312 311 311 311 310 309 309 310 313 315 312 311 313 313 313 317 319 317 316 315 314 314 315 316 315 315 317 316 316 318 318 318 317 316 317 316 317 318 317 320 320 319 321 321 319 318 318 319 320 320 321 320 319 321 322 324 321 318 319 319 323 325 324 321 319 323 325 320 319 322 320 317 319 319 319 320 319 318 318 318 320 321 320
318 317 317 316 315 313 312 311 311 311 309 311 312 313 313 312 312 312 312 314 319 319 318 317 316 314 315 318 318 315 316 319 317 317 319 318 317 317 316 316 316 317 317 316 319 320 317 320 322 319 317 317 319 320 320 320 319 318 320 321 324 323 318 318 321 321 322 323 322 321 324 324 319 318 321 319 319 320 318 319 319 319 319 318 318 320 319 319
318 318 317 317 317 315 313 311 311 311 310 311 312 312 312 311 312 312 313 317 319 318 318 318 317 315 316 319 320 316 316 320 319 318 320 319 317 318 318 317 316 316 317 315 318 322 319 321 322 319 318 316 316 319 319 319 319 320 322 323 325 324 319 320 322 320 319 319 319 320 320 319 317 318 319 318 319 320 319 319 318 319 320 318 318 319 318 319
317 318 317 316 317 317 314 312 312 311 311 313 312 311 311 311 312 313 316 318 318 317 318 318 318 317 316 319 319 318 318 320 320 319 320 319 319 319 318 318 317 316 317 314 317 323 322 321 320 319 319 316 313 316 317 317 319 323 325 322 321 324 322 320 321 321 321 319 319 319 317 315 316 318 321 320 319 320 321 321 318 318 319 319 319 318 318 318
316 317 317 316 317 318 315 313 312 311 312 314 313 311 312 312 312 314 317 318 317 317 317 318 319 318 318 318 318 318 318 318 319 318 318 318 318 319 318 318 318 316 317 315 316 320 320 319 319 316 317 316 314 316 318 316 316 320 322 320 320 323 324 322 320 320 320 318 319 319 316 315 317 318 319 321 322 321 320 321 320 319 318 318 319 319 318 319
316 316 316 316 316 317 316 315 313 311 312 314 314 312 312 312 312 313 316 317 317 317 316 317 319 318 318 318 317 317 316 316 318 317 318 317 317 319 318 318 320 317 316 316 316 319 318 317 320 316 314 317 317 318 321 320 318 317 319 320 321 322 323 323 321 319 320 319 318 319 317 315 318 321 320 320 322 321 319 320 321 319 318 318 319 319 319 319
316 315 315 315 316 317 317 316 314 311 311 313 313 313 312 313 312 312 315 317 317 316 315 317 318 317 318 319 317 317 316 316 318 317 317 317 316 318 318 317 320 319 316 315 316 319 317 315 319 316 314 318 319 318 319 320 319 317 318 321 322 321 321 323 322 320 320 321 320 320 318 316 319 323 322 320 321 321 320 322 321 318 318 319 319 320 320 319
314 315 315 314 314 315 315 315 313 310 310 312 313 313 313 314 314 312 313 316 317 316 316 317 318 317 318 319 318 317 316 316 318 317 317 317 316 318 319 317 319 319 318 317 317 317 316 315 319 319 317 318 320 319 318 319 319 318 316 318 319 320 320 321 322 321 321 322 322 320 317 317 319 320 321 322 323 322 320 320 321 320 319 320 320 320 319 318
313 315 315 314 312 312 314 313 308 306 308 310 311 312 313 315 316 314 313 316 317 317 316 317 318 317 318 319 318 318 317 316 318 318 317 316 316 318 318 317 317 318 317 318 317 316 317 317 319 320 320 319 319 318 317 318 321 320 318 318 318 318 319 320 321 323 324 323 321 320 319 317 319 324 325 324 322 319 318 318 319 321 321 321 320 319 319 318
311 313 314 314 312 311 313 312 306 305 308 308 310 312 312 313 316 316 315 316 317 317 317 316 316 317 318 319 318 318 317 316 318 318 317 317 316 317 317 317 317 317 316 318 318 315 316 319 319 318 319 320 319 317 316 316 318 320 321 321 320 319 319 320 322 324 326 324 322 322 320 317 324 331 324 318 318 318 318 318 318 320 321 321 320 318 318 319
310 311 312 313 313 312 313 311 307 307 308 307 308 310 311 311 313 315 317 316 315 317 317 316 315 315 317 319 319 318 316 316 318 318 317 318 318 317 317 316 317 317 316 318 318 316 316 320 320 318 319 321 321 319 318 318 318 319 321 322 322 322 320 320 322 322 322 323 322 322 320 317 325 329 320 317 320 319 318 317 318 320 321 320 319 319 318 318
310 310 310 312 313 312 312 311 308 308 308 307 308 309 309 310 311 312 315 315 315 315 315 316 315 314 317 319 319 319 318 316 318 319 318 319 320 318 317 317 317 316 317 318 315 315 318 319 318 318 318 318 320 322 323 321 319 319 320 321 321 323 322 321 321 322 320 320 321 321 319 317 320 323 321 321 322 320 318 317 318 320 320 320 320 318 318 318
310 310 310 310 312 313 312 310 308 308 308 308 309 309 309 310 310 311 312 313 314 314 314 317 317 314 318 321 319 320 320 316 317 320 319 320 322 319 317 318 318 315 318 318 314 316 322 320 315 317 317 315 317 324 325 321 319 319 320 320 320 321 322 321 321 321 319 318 319 319 318 317 317 318 320 320 320 322 321 317 317 318 319 319 319 318 318 318
309 310 310 310 310 312 313 312 310 308 308 308 309 309 309 309 310 311 312 312 313 313 314 316 317 316 317 318 318 319 320 318 317 318 319 321 322 318 315 318 319 317 317 316 314 319 324 321 316 317 317 315 317 324 324 320 318 319 318 318 319 320 321 322 321 321 319 319 319 318 318 319 317 316 318 319 320 322 320 317 317 318 318 318 318 318 318 318
308 309 310 310 310 311 312 313 311 309 308 308 309 310 310 310 310 311 312 312 312 313 315 315 316 317 318 317 316 317 318 319 318 317 318 321 321 318 315 316 316 315 316 316 315 318 322 320 318 319 318 316 317 320 322 321 319 318 318 318 318 319 320 321 320 319 319 320 319 318 318 320 318 316 318 320 319 318 317 317 317 317 317 317 317 318 318 318
307 308 309 310 311 311 311 312 312 310 309 309 309 310 310 310 310 311 312 312 312 313 314 315 315 315 317 317 316 316 316 318 318 317 318 321 321 319 317 317 316 313 315 318 316 315 318 318 318 318 319 318 318 318 321 321 320 320 319 319 318 318 319 319 319 318 319 319 319 318 319 319 317 316 317 317 317 316 316 316 317 317 317 317 317 317 318 318
306 307 308 309 310 310 310 311 312 311 310 309 309 309 309 310 310 310 312 313 312 312 313 313 314 313 315 316 317 317 316 317 318 318 319 321 320 318 317 318 317 314 314 317 317 314 315 318 319 318 318 318 318 318 320 321 320 321 322 321 320 319 318 318 318 318 318 319 318 318 319 318 316 316 316 315 316 316 316 316 316 316 317 316 317 317 317 317
305 306 307 308 309 309 309 310 312 312 310 309 309 309 309 310 311 311 312 312 312 312 313 313 313 313 314 314 315 316 316 317 317 317 317 318 317 316 316 316 316 316 315 315 317 316 315 318 320 320 318 318 317 318 318 319 319 320 321 321 320 319 319 319 319 319 318 318 318 319 319 318 316 315 316 316 315 315 315 316 316 316 316 316 316 316 317 317
304 305 306 306 308 309 310 310 311 312 311 309 309 310 310 310 311 312 313 313 312 312 312 312 313 314 314 314 314 314 314 313 314 314 314 315 314 314 315 314 313 315 315 315 316 317 317 317 319 319 318 317 317 318 319 319 319 319 318 318 317 317 318 319 320 320 319 319 319 319 318 317 316 316 316 316 316 315 315 315 316 316 316 316 316 317 317 317
Wind_Speed
19 18 19 18 18 18 17 17 16 15 15 14 14 13 13 12 12 11 11 11 11 12 12 11 10 8 7 6 7 7 5 4 2 3 4 5 8 9 8 8 7 6 6 5 5 5 4 3 3 4 4 3 3 2 4 4 4 2 0 1 4 2 1 1 2 4 6 6 7 12 14 8 6 8 7 4 4 3 4 6 6 6 9 8 4 5 5 6
20 19 19 19 19 18 18 17 17 16 15 14 14 13 13 12 12 12 11 12 12 13 13 12 10 8 7 6 6 6 5 4 2 3 6 7 6 7 7 8 7 6 6 6 7 5 2 2 3 5 4 4 3 2 2 3 5 2 1 3 3 1 3 6 8 7 5 8 10 12 13 8 7 11 9 5 7 9 5 6 9 8 9 11 10 8 7 7
20 20 20 20 19 19 18 18 17 16 16 15 14 13 13 13 12 12 12 12 12 13 13 12 10 8 7 6 6 5 4 4 4 6 8 6 6 7 7 7 6 6 6 7 8 7 5 3 5 6 5 5 4 4 4 3 4 3 2 1 1 2 5 11 13 9 7 9 11 10 10 6 7 10 9 6 7 11 9 9 12 12 12 13 13 13 11 10
21 21 20 20 20 19 19 18 17 16 16 15 14 14 13 13 13 12 12 13 13 13 13 12 10 8 6 6 5 5 5 3 5 9 8 6 7 7 7 6 6 6 6 6 6 8 8 5 5 7 5 4 6 5 6 5 4 2 1 1 3 3 5 8 11 8 7 8 10 10 7 5 6 6 7 7 4 6 9 12 12 14 16 15 14 14 13 13
22 22 21 21 20 19 19 18 17 16 16 15 14 14 13 13 13 13 13 13 14 14 13 12 10 8 6 6 6 6 6 2 3 10 9 7 7 6 6 6 5 5 5 6 6 6 7 5 4 6 6 3 7 5 5 8 6 1 2 4 6 7 4 4 7 9 7 6 10 10 5 5 7 5 6 7 5 2 3 7 9 8 11 13 13 12 12 13
24 23 22 21 20 20 19 18 17 17 16 15 15 14 13 13 13 13 13 14 14 14 14 13 10 8 6 6 6 7 7 1 2 8 9 8 8 7 6 5 5 4 4 6 6 6 6 5 6 7 6 4 8 5 4 8 6 0 3 6 7 6 6 4 5 9 7 6 7 6 4 6 6 4 8 12 11 4 4 3 5 3 3 5 8 9 10 11
24 24 23 22 21 21 20 19 18 17 16 15 15 14 13 13 13 13 14 14 14 15 14 13 11 8 6 6 6 8 8 5 4 6 9 9 9 8 6 5 4 4 5 5 4 4 4 5 7 8 6 3 7 5 4 6 5 2 2 5 6 8 8 4 5 7 6 6 4 3 3 4 4 3 5 12 16 11 6 7 5 4 3 3 6 8 9 10
24 24 24 23 23 22 21 20 19 18 17 16 15 14 14 13 13 14 14 14 15 15 14 13 11 8 7 7 6 6 9 7 4 6 10 11 10 8 6 6 5 4 5 6 5 4 4 6 8 7 3 2 4 5 4 4 3 2 3 6 5 8 8 6 6 6 5 4 3 3 1 3 4 2 3 12 17 15 13 13 13 11 9 8 11 12 11 12
25 25 25 24 24 23 22 21 20 19 18 17 16 15 14 14 14 14 14 15 15 15 14 13 11 9 7 7 6 4 7 8 5 9 13 12 10 8 6 5 5 5 3 3 6 5 4 4 4 4 1 4 4 4 2 1 1 2 6 8 7 8 7 7 7 6 5 3 4 3 4 5 5 4 7 15 19 17 14 14 16 15 14 12 13 14 14 14
25 25 25 24 24 23 23 22 21 20 18 17 17 15 15 14 14 15 15 15 15 15 14 13 11 9 8 7 6 3 4 7 7 12 14 12 9 7 5 4 3 5 3 1 5 5 4 1 1 2 1 4 4 3 2 1 1 3 7 8 9 8 6 6 6 6 5 3 4 2 3 4 4 2 5 10 11 14 15 14 16 16 16 16 15 16 17 17
25 26 26 24 24 24 23 23 21 20 19 18 17 16 15 14 15 15 15 15 15 15 14 14 11 9 8 8 7 4 5 8 9 13 14 11 8 5 4 3 2 4 3 1 4 5 4 2 2 2 1 4 6 4 4 5 3 4 8 8 7 7 6 6 5 7 6 3 4 2 4 3 2 3 10 11 6 8 15 16 16 17 15 15 15 16 18 19
26 26 26 25 25 25 24 23 22 21 19 18 17 17 15 15 15 16 16 16 15 15 15 14 11 10 8 9 9 6 6 10 10 13 14 10 7 4 3 2 2 4 4 2 2 5 4 3 4 2 2 4 4 4 5 5 3 4 5 3 5 6 4 8 7 8 7 3 4 2 3 6 6 10 18 16 11 9 12 14 13 14 13 13 14 16 18 19
26 26 25 25 25 25 25 24 22 21 19 18 17 16 15 15 16 16 16 16 15 15 16 14 12 11 8 7 8 7 7 11 11 13 14 10 7 4 3 3 3 4 4 3 3 5 6 6 5 4 4 3 3 4 5 4 3 3 3 1 3 3 3 9 8 6 5 4 5 3 1 6 6 17 20 12 14 14 12 13 12 12 13 14 15 17 19 20
27 26 25 25 24 24 25 24 22 20 19 18 17 16 15 15 16 16 16 16 16 16 16 15 12 12 9 4 5 8 9 10 12 14 14 12 8 5 4 4 4 3 3 4 4 5 6 6 5 4 4 5 6 7 5 3 2 2 2 0 2 2 1 5 6 7 4 4 7 4 1 7 5 9 13 9 13 14 13 13 12 13 15 16 16 17 20 20
27 26 26 25 25 24 24 23 21 20 18 17 16 15 14 14 15 16 16 16 16 16 16 15 13 11 7 4 4 8 10 10 13 15 15 13 8 5 5 4 3 3 4 4 5 5 6 7 5 5 5 6 7 5 3 3 3 1 2 2 2 2 1 2 3 7 3 2 8 5 2 7 4 4 9 10 10 11 11 12 12 14 15 16 17 18 19 18
26 25 26 25 24 24 23 22 21 19 17 16 15 15 14 14 15 15 15 15 16 16 14 12 13 10 4 3 6 9 10 11 13 14 15 13 10 7 6 5 3 3 4 5 5 5 7 7 6 6 6 5 3 3 3 3 2 2 2 2 2 3 3 2 1 3 2 1 6 6 3 4 2 4 8 7 8 9 10 11 12 14 15 16 18 19 20 20
24 24 25 25 24 23 23 22 20 18 17 16 15 14 14 14 14 15 14 15 14 14 13 9 9 9 5 3 6 8 13 13 13 15 16 14 12 8 6 5 3 4 4 5 5 6 6 5 6 5 3 2 4 3 2 2 3 3 3 3 2 2 3 2 1 2 3 0 2 5 5 5 5 6 7 7 8 10 12 13 14 16 17 18 20 21 23 24
22 23 24 24 24 23 23 22 20 18 16 16 15 14 14 13 13 14 14 15 13 12 12 9 8 5 5 7 7 7 14 15 13 14 15 15 13 10 8 5 4 5 5 4 4 5 3 4 4 1 2 2 4 3 4 3 2 2 4 3 2 2 4 3 1 3 5 1 3 4 6 8 9 11 15 15 13 15 17 18 19 20 21 22 23 24 25 26
22 23 24 24 24 25 24 22 21 19 17 16 15 14 14 14 13 13 14 15 14 9 5 10 13 4 1 11 14 10 13 13 12 13 15 16 13 11 10 6 5 5 4 3 2 3 3 3 1 1 3 4 4 4 4 1 3 3 2 1 2 1 2 1 3 3 4 2 4 6 7 9 9 9 14 18 18 20 22 22 22 23 23 24 25 26 26 28
21 22 23 24 25 27 25 24 22 19 20 18 17 16 14 14 10 8 13 16 16 8 1 11 18 5 3 11 18 13 11 12 12 14 16 16 14 11 8 7 6 4 3 3 3 3 3 2 2 3 4 4 6 7 3 4 5 3 3 2 3 3 2 0 4 2 1 0 5 7 7 10 11 9 11 18 20 19 20 21 22 23 24 26 26 26 26 28
20 21 22 24 26 27 26 25 23 22 23 21 22 18 11 14 9 5 12 12 16 11 1 10 15 7 2 7 16 14 11 11 11 14 15 15 15 11 8 8 5 4 3 4 6 2 2 1 4 6 2 2 1 3 4 5 4 3 3 2 3 3 4 1 4 3 1 2 4 7 8 10 12 11 12 16 15 16 21 21 21 23 25 27 25 26 26 27
18 21 22 24 26 27 25 25 25 25 25 24 28 21 10 17 11 6 13 8 13 17 7 8 10 7 5 6 13 14 9 8 7 13 16 17 16 10 10 9 4 3 4 6 6 2 1 3 5 3 4 6 6 5 6 4 3 3 1 1 2 2 3 2 4 4 3 2 4 7 7 9 12 12 14 18 16 18 24 23 22 24 26 28 26 24 24 24
17 20 22 23 25 26 26 27 26 28 30 28 30 22 13 20 13 8 16 7 8 20 16 10 7 8 10 8 13 14 9 8 7 13 17 18 16 11 10 9 4 4 6 4 5 3 2 4 3 5 6 5 4 4 5 3 2 2 2 0 2 1 1 1 0 2 4 4 3 5 7 9 11 12 14 22 24 21 22 22 23 26 28 31 28 23 22 20
17 20 20 22 25 26 26 27 28 30 32 30 31 24 15 21 16 12 17 4 1 14 19 16 9 9 13 10 13 14 9 7 7 13 20 19 14 10 8 9 7 4 5 6 6 5 3 1 2 6 4 3 5 3 4 3 1 4 5 3 4 2 1 1 2 3 3 2 0 4 7 8 8 9 10 15 19 19 20 20 23 28 30 31 29 26 24 23
17 19 20 22 24 25 26 27 29 32 31 31 32 25 17 20 17 13 13 3 1 7 12 17 13 10 14 12 13 13 7 5 6 11 21 20 13 8 6 8 7 4 6 7 6 5 2 1 2 5 3 3 5 3 4 5 2 3 5 4 4 3 4 4 5 6 5 3 1 2 4 5 2 5 7 6 6 10 14 15 20 26 27 25 25 25 24 23
18 20 20 22 23 25 24 22 27 31 29 30 30 21 15 18 16 13 10 1 2 5 6 12 13 11 15 13 14 12 2 5 9 11 20 21 14 9 5 5 3 2 5 5 2 2 2 1 1 6 5 4 3 2 4 5 2 2 3 2 2 3 5 4 5 4 2 4 4 2 1 6 3 2 7 5 5 7 9 10 17 24 23 20 20 20 19 17
18 21 22 22 24 25 21 16 24 30 25 26 28 19 14 17 16 14 8 2 3 7 7 9 10 11 14 14 18 11 1 8 12 10 19 20 14 10 5 4 4 2 2 3 1 0 3 3 2 5 5 4 4 2 3 7 3 2 4 4 4 5 3 2 4 1 2 5 6 4 5 5 7 5 10 9 8 7 8 9 13 19 21 19 18 16 14 12
17 20 22 23 24 25 22 16 22 28 24 23 26 20 13 16 17 12 5 1 3 8 6 8 10 12 14 17 21 11 5 13 9 7 20 20 13 9 4 4 5 4 3 3 3 1 2 5 5 5 4 3 4 1 2 8 4 1 3 2 4 5 3 2 2 2 3 5 5 3 7 2 8 5 8 10 8 7 10 10 9 15 17 14 12 11 9 8
19 19 22 24 24 24 23 19 21 26 26 23 24 19 13 17 16 8 1 2 5 6 4 9 11 11 15 17 17 11 9 8 2 8 20 18 13 8 2 3 4 6 7 4 3 2 2 2 1 4 5 3 3 3 3 3 3 3 3 3 5 4 3 3 1 2 3 4 4 5 6 2 8 7 4 7 7 7 9 8 8 12 11 6 6 7 8 9
20 19 21 23 24 25 24 23 24 27 25 21 22 19 15 15 11 5 4 3 3 3 5 9 9 12 17 13 8 10 8 3 4 13 13 10 10 6 3 2 2 2 4 2 3 2 2 2 2 1 3 3 6 5 6 5 6 6 4 4 4 2 3 3 1 3 3 5 4 8 10 4 4 5 2 5 6 7 7 6 7 8 4 4 5 6 8 9
19 20 21 23 25 27 25 23 25 28 25 21 22 21 16 8 3 4 6 1 1 3 5 5 7 13 17 12 7 9 7 4 9 14 7 5 7 4 3 3 2 3 2 2 2 2 1 2 1 2 3 6 6 4 7 5 4 4 3 3 3 2 3 3 2 3 1 6 3 6 10 7 5 5 1 3 6 6 5 5 4 2 1 1 3 5 7 8
16 18 20 23 24 26 26 22 23 27 25 21 25 23 13 4 2 5 4 2 1 5 6 6 8 11 13 11 8 8 7 6 9 10 6 5 5 5 6 5 4 3 0 3 2 1 1 2 3 3 2 5 5 4 4 4 2 1 3 5 3 0 1 1 1 1 3 6 4 0 4 5 7 5 3 4 4 4 2 1 2 2 3 5 4 6 9 9
15 16 18 21 24 26 28 24 21 24 24 24 27 18 6 3 5 7 6 4 2 3 7 10 10 11 12 9 7 8 7 5 8 8 6 6 5 6 7 7 8 5 2 6 4 2 0 1 3 4 1 6 6 4 3 1 2 5 5 6 4 3 2 3 3 2 4 4 3 3 2 4 5 3 8 11 9 8 5 7 10 9 10 13 12 11 11 10
19 19 18 19 21 24 27 24 19 21 24 26 22 11 4 6 6 8 11 6 2 1 4 10 11 12 12 8 7 9 5 4 9 8 6 7 5 6 7 7 10 5 2 4 4 6 4 4 5 6 3 10 10 6 6 5 5 7 5 5 5 4 4 4 3 3 4 3 3 1 0 3 2 2 6 8 11 15 15 16 17 15 16 17 16 13 11 13
23 24 23 20 20 21 24 24 19 20 25 25 14 6 7 8 6 9 11 5 3 2 4 8 11 11 9 4 5 8 3 2 9 8 6 8 6 7 7 7 11 8 4 4 2 5 6 5 4 4 5 14 11 5 5 6 3 4 3 2 5 4 3 2 2 2 2 2 3 3 4 5 4 6 5 2 5 13 18 20 18 16 18 20 20 16 12 15
24 29 30 27 25 20 22 25 20 20 26 21 8 6 9 8 7 8 6 4 5 6 8 8 6 7 7 3 2 5 1 2 8 6 4 6 5 7 8 7 11 11 7 7 2 3 5 3 2 3 2 6 4 2 2 4 2 3 3 4 3 1 3 2 1 2 4 2 4 3 6 6 3 7 9 9 9 10 11 13 15 19 22 23 23 19 16 18
25 30 34 36 32 22 22 24 19 22 25 15 7 9 8 9 11 7 4 8 11 12 9 6 4 5 7 4 3 5 2 2 6 5 4 5 4 8 9 7 12 15 13 10 4 2 5 1 3 1 1 1 3 4 2 2 3 4 4 4 1 4 3 3 0 2 1 5 4 3 8 8 4 6 5 6 9 8 8 9 13 19 21 21 23 22 20 17
25 29 33 38 36 27 24 23 20 23 20 8 8 12 9 10 14 9 8 12 13 13 8 5 5 5 7 6 5 7 6 5 6 5 5 5 4 9 11 8 11 17 19 15 5 1 4 2 3 2 1 2 3 2 1 3 4 4 2 2 2 2 1 3 2 2 3 4 5 5 8 7 6 6 4 4 9 10 10 10 10 11 15 19 22 22 17 12
24 24 24 31 37 33 28 25 24 22 13 6 9 12 9 12 16 14 12 13 10 9 8 6 5 4 6 8 7 8 8 7 8 7 5 5 4 8 13 10 8 15 21 18 7 0 2 3 3 3 3 1 2 1 4 1 2 2 3 3 2 3 2 4 3 3 3 4 5 5 6 5 5 6 6 9 11 10 10 10 7 9 15 20 22 19 12 7
21 15 14 25 32 30 30 32 29 19 8 7 10 10 8 8 11 17 18 15 10 8 8 7 7 6 7 7 7 7 7 7 9 7 5 7 5 5 11 12 6 9 16 16 7 2 3 2 3 2 4 1 2 4 8 7 5 3 1 2 2 1 1 1 1 2 3 3 3 4 7 7 3 3 6 8 9 11 10 8 7 12 17 18 18 16 11 7
16 8 9 23 27 26 30 28 19 11 6 8 11 10 7 3 4 15 20 17 13 9 6 6 8 8 7 8 7 7 7 6 8 7 4 7 7 4 8 14 10 8 11 9 7 5 3 3 4 2 1 3 4 4 6 7 8 7 6 7 7 5 3 1 3 3 2 2 3 2 7 9 3 1 1 4 7 8 6 5 7 13 15 14 14 13 9 4
12 5 6 18 23 26 28 15 4 3 5 9 11 8 3 3 2 12 16 13 10 8 5 6 8 8 8 8 8 8 7 6 7 7 5 9 10 6 10 18 20 17 12 6 8 8 4 3 4 3 4 5 1 1 3 3 2 2 3 5 6 5 5 4 5 4 2 3 4 1 6 10 3 1 3 6 5 5 6 4 1 5 10 13 14 11 5 2
14 8 5 11 20 28 25 7 2 3 2 4 7 5 1 3 2 5 10 10 8 6 5 5 7 8 7 8 8 9 9 7 8 10 7 8 10 8 13 21 21 18 11 4 3 5 4 3 3 2 2 1 2 2 3 4 3 0 2 1 3 5 6 5 4 3 3 4 5 2 7 9 3 3 3 4 4 4 4 7 8 5 10 14 13 8 3 5
15 13 9 11 22 29 20 4 2 6 4 2 4 7 6 3 3 3 4 6 8 6 5 6 7 8 7 7 8 10 12 8 7 11 9 6 7 8 16 24 20 13 9 7 8 10 6 3 4 3 1 1 1 1 2 3 1 1 3 3 5 7 8 5 2 1 2 9 9 5 8 9 3 4 4 4 3 1 5 11 12 9 10 11 9 5 4 8
9 11 10 14 27 31 20 10 7 6 5 6 5 8 9 4 4 6 4 4 5 4 3 6 9 9 5 4 6 9 13 11 7 8 8 6 3 3 12 24 24 15 10 12 17 17 8 4 6 6 5 6 5 4 4 2 1 2 5 7 9 9 10 7 3 3 7 12 10 6 9 11 4 3 5 5 2 1 7 11 11 8 8 10 10 8 8 11
5 5 6 10 21 27 21 17 15 7 5 7 4 7 12 7 6 10 8 4 5 3 2 2 7 10 4 3 5 6 10 12 9 6 7 7 3 2 5 17 21 17 10 11 19 16 4 3 9 9 10 11 9 5 6 7 7 7 10 12 13 12 12 9 5 7 11 9 7 9 12 16 14 5 0 3 2 3 6 7 8 10 12 14 14 12 14 17
5 3 5 5 8 13 14 14 15 7 7 11 6 5 12 13 9 9 10 7 5 2 1 4 2 9 8 9 9 7 7 11 10 8 8 6 2 2 2 6 10 11 8 10 16 11 3 3 11 12 14 15 11 6 8 11 12 13 14 14 14 13 13 11 11 14 12 6 9 13 10 13 20 12 6 6 7 6 6 9 12 14 16 17 17 17 21 23
8 3 5 7 3 4 6 10 14 10 9 11 7 4 10 14 12 9 10 11 7 2 1 2 4 7 10 12 11 8 8 8 9 10 8 5 4 3 2 1 1 5 6 7 10 6 3 5 9 11 14 16 14 9 9 11 10 11 13 13 14 15 15 16 19 19 12 7 11 15 10 12 20 15 7 7 10 10 9 13 16 16 17 18 19 22 25 26
13 7 4 6 5 2 3 8 14 12 10 11 7 5 9 13 14 12 8 7 7 6 5 4 7 7 6 7 10 10 11 10 10 10 7 5 5 5 4 0 2 3 3 4 5 2 3 6 8 9 11 14 15 12 8 9 7 6 10 12 14 17 19 20 21 18 14 12 15 18 16 16 19 18 11 10 17 20 20 23 25 25 25 25 25 27 28 27
13 10 6 5 6 4 3 4 8 9 10 11 8 6 8 12 14 14 10 9 9 9 9 10 12 9 6 6 7 9 9 8 9 10 7 7 6 5 5 4 3 3 2 3 2 1 3 5 5 6 6 10 14 12 8 6 4 3 5 8 12 17 19 19 16 13 12 14 17 18 19 18 18 17 15 18 23 21 21 25 26 27 29 29 28 29 27 28
16 12 7 4 4 5 5 3 4 5 6 9 8 7 9 12 14 12 11 15 15 10 12 16 17 11 8 7 6 9 8 3 2 0 5 7 6 3 2 4 6 5 4 4 2 2 4 3 0 4 4 10 12 9 5 3 2 3 8 12 15 15 11 10 10 11 13 13 13 13 13 15 16 12 12 20 21 15 18 25 25 27 29 29 29 30 30 30
22 16 12 6 3 5 5 3 5 6 4 5 8 7 8 11 12 10 7 11 17 16 17 20 18 10 8 10 12 15 12 4 6 4 7 8 6 8 6 4 7 7 6 5 2 2 5 3 2 4 6 11 10 5 6 6 2 6 14 18 18 14 8 7 8 11 13 11 9 9 11 14 15 11 10 15 14 13 19 27 29 28 27 26 28 31 31 29
Wind_Direction
195 199 198 195 194 190 189 187 187 188 187 189 193 198 201 203 205 205 207 205 204 201 198 197 197 202 204 205 196 196 201 204 188 146 190 219 210 218 226 215 209 208 195 179 163 142 128 133 155 151 135 156 162 165 192 211 199 192 269 211 252 230 148 220 95 107 141 135 145 164 167 164 149 169 188 192 192 180 162 169 190 209 216 228 210 182 184 182
194 199 200 198 196 193 191 190 189 190 189 191 194 199 202 204 205 206 208 206 205 201 198 197 198 202 204 202 195 197 203 212 199 195 235 242 220 217 217 213 212 205 190 174 154 135 147 191 191 172 160 171 159 153 168 190 192 203 250 227 264 56 32 22 61 66 86 133 154 162 179 184 153 167 175 187 198 189 189 196 200 208 221 230 226 220 209 195
194 199 201 200 198 195 193 193 192 192 192 193 196 200 203 205 206 207 208 208 206 202 199 198 200 203 204 199 193 196 199 214 215 216 231 232 215 210 206 208 206 200 190 183 167 172 204 192 188 196 190 181 164 160 161 182 198 218 260 224 320 74 54 41 65 62 52 119 148 155 180 180 135 153 169 201 208 188 196 200 191 197 216 231 228 227 224 214
194 198 201 202 201 198 196 196 195 194 196 196 199 202 205 207 207 208 209 209 206 203 201 199 202 203 203 198 190 189 192 218 225 217 227 224 208 204 202 201 196 194 190 188 177 181 182 158 184 201 215 195 156 170 176 179 189 197 223 107 345 4 61 49 64 74 67 109 137 142 163 166 136 148 171 200 229 203 208 207 202 205 213 224 225 224 225 226
194 198 201 203 202 201 199 199 198 197 198 199 201 204 207 208 209 210 209 209 206 203 202 201 204 204 202 198 189 188 186 194 213 211 221 215 201 198 194 187 184 183 179 177 165 172 169 162 199 207 240 202 145 177 178 172 189 155 98 85 19 4 63 73 75 87 78 97 124 132 156 169 151 164 190 204 231 198 153 182 197 205 206 214 219 218 219 226
194 197 200 202 203 202 201 201 200 200 201 202 204 206 209 210 211 211 208 209 205 203 203 201 203 204 203 198 195 195 193 256 255 207 205 195 186 180 175 169 171 166 167 169 153 161 165 176 204 205 233 203 161 178 136 161 195 270 95 81 41 39 85 100 100 96 82 94 113 128 163 158 152 198 214 219 229 203 81 128 172 180 194 201 215 221 224 230
196 197 200 202 202 202 202 202 201 202 203 203 206 208 210 211 212 212 209 208 205 204 202 202 203 202 202 199 201 206 214 267 287 211 191 180 171 162 155 148 149 153 156 145 139 161 171 195 208 215 235 200 166 163 124 162 188 237 123 93 62 76 90 106 129 113 90 92 103 117 140 154 182 224 215 223 231 233 262 273 258 252 244 233 241 244 245 249
200 197 200 201 202 203 202 203 202 203 204 205 207 209 211 212 213 212 208 207 205 204 201 201 201 197 203 200 199 218 226 240 255 202 183 172 165 155 148 140 134 143 148 144 155 180 200 215 217 228 250 90 135 138 141 164 172 280 108 113 94 88 96 107 121 124 104 105 129 141 189 226 220 260 253 235 234 234 247 261 265 260 251 248 255 258 253 252
205 200 201 202 202 203 203 203 203 204 204 205 207 209 212 212 212 211 208 207 204 204 201 199 199 196 201 200 202 233 227 219 215 189 178 170 165 160 153 139 133 128 109 149 169 174 198 227 232 230 33 74 118 123 115 125 73 33 107 123 115 104 110 110 114 121 115 135 143 157 228 230 232 279 270 250 245 240 238 247 255 258 254 249 251 256 256 253
211 204 201 203 204 203 203 204 204 204 204 205 207 209 212 211 210 208 206 206 203 203 200 198 198 196 198 199 205 237 218 206 196 182 177 173 168 167 163 145 143 127 84 186 180 169 194 266 68 146 56 80 107 86 50 73 83 93 110 113 111 117 126 123 129 137 134 140 150 208 255 216 217 253 259 251 249 237 227 232 242 250 255 254 251 251 255 255
215 210 203 202 204 205 204 204 205 205 205 205 207 209 211 211 208 206 205 204 202 201 198 197 196 196 199 195 205 238 213 194 182 179 178 176 173 174 174 156 163 142 103 145 182 175 193 219 140 136 182 127 107 75 76 103 108 122 123 109 116 130 133 145 150 157 167 143 163 235 312 273 189 203 246 236 218 212 213 221 234 245 251 252 252 248 249 253
216 214 208 202 202 205 205 205 205 205 206 206 207 209 210 211 207 204 203 202 200 199 195 195 193 196 201 201 220 253 217 189 174 178 182 182 182 179 170 154 155 154 143 134 177 182 182 177 154 101 127 140 119 103 98 106 111 141 154 131 147 153 158 180 175 173 189 148 147 131 324 268 206 222 252 239 215 207 205 213 223 240 249 248 248 245 247 249
216 214 212 206 203 203 204 205 205 205 207 207 208 209 209 210 207 203 203 201 199 196 193 193 192 195 197 207 230 243 211 189 177 181 188 189 186 175 159 143 128 141 159 157 154 168 176 175 152 112 110 95 91 125 113 110 123 159 197 246 162 179 202 187 169 162 181 136 137 115 308 269 226 227 245 235 216 214 205 213 218 235 250 252 249 244 248 251
217 214 212 209 205 204 204 204 206 208 208 209 209 209 211 210 207 203 202 201 197 194 192 192 193 195 201 218 228 212 197 188 186 186 191 195 187 172 160 143 127 131 141 145 149 155 166 170 155 122 99 85 107 128 118 123 166 166 154 244 199 219 205 169 150 147 170 154 153 130 220 272 289 223 216 200 207 213 212 222 228 234 242 246 247 245 249 255
218 214 211 209 207 205 205 204 206 209 209 210 209 209 211 209 207 204 202 200 196 194 192 193 195 194 204 230 219 199 187 188 194 190 192 194 182 170 166 150 129 132 122 122 143 153 148 144 135 116 101 106 127 142 143 158 210 181 136 248 216 208 203 138 156 163 170 163 165 154 217 259 294 136 170 187 199 208 217 228 232 233 233 237 243 248 253 258
216 214 210 209 206 205 205 204 206 208 209 208 207 209 209 208 206 204 202 198 194 192 190 194 199 198 200 219 210 197 187 190 194 190 192 190 176 170 169 156 131 127 130 122 126 136 142 135 114 113 118 124 159 192 172 155 223 194 180 242 192 181 193 160 259 219 179 117 176 198 251 276 283 156 173 193 209 214 221 230 231 233 233 233 239 247 254 258
216 215 210 206 204 204 203 204 204 206 207 206 206 207 206 205 204 202 199 193 192 189 185 185 195 208 234 231 204 195 196 196 191 188 188 185 177 164 156 156 134 112 117 117 119 122 128 133 119 121 142 194 227 201 151 181 240 204 182 247 231 169 196 173 313 258 190 239 226 215 232 256 267 249 224 210 224 230 229 236 239 240 242 242 243 245 249 254
217 214 210 204 200 200 201 202 202 202 204 203 202 202 200 198 196 195 192 188 184 177 183 178 168 195 243 222 200 195 204 201 191 188 183 181 179 164 152 146 133 122 122 119 125 132 125 137 144 152 170 222 240 178 162 203 228 202 174 210 248 208 233 231 171 191 174 169 267 237 241 248 254 263 255 245 242 240 240 247 250 250 250 249 248 246 246 249
217 212 208 202 198 197 198 199 199 198 196 195 194 192 188 181 182 187 186 183 173 161 190 188 175 166 303 199 196 198 206 199 184 181 179 180 181 171 156 143 155 158 158 163 150 156 146 129 135 235 185 199 224 196 196 200 42 27 105 126 297 296 245 200 107 181 177 150 238 240 252 259 254 253 256 256 251 245 246 249 249 249 250 249 248 246 246 247
212 210 205 201 197 194 195 195 195 191 187 185 179 175 171 163 161 178 183 183 180 172 353 183 185 194 57 176 188 188 186 179 174 179 181 181 173 165 157 149 166 196 215 180 151 169 161 143 185 207 210 205 207 201 187 54 48 18 25 21 319 333 307 52 100 183 208 142 248 246 253 267 268 258 254 256 256 255 254 253 248 247 248 248 248 247 247 250
206 204 202 199 196 192 192 190 188 185 181 178 170 164 166 171 165 165 176 186 195 200 193 169 183 197 145 174 183 173 158 159 174 189 185 177 167 159 166 166 163 209 216 115 98 122 135 168 220 211 198 78 134 159 94 57 47 33 15 349 320 291 265 259 111 166 108 72 264 268 266 266 267 266 259 251 247 246 248 252 253 253 254 254 252 250 251 254
202 199 198 195 193 190 190 186 184 181 178 178 174 166 168 182 180 170 173 183 211 214 225 181 180 188 172 173 179 166 148 147 172 195 185 172 171 169 171 178 185 188 160 100 92 98 131 227 232 178 96 71 54 56 65 47 44 65 52 344 312 283 288 5 95 152 134 129 257 279 277 265 262 266 263 252 242 239 242 245 252 255 258 259 256 253 254 254
198 193 191 190 189 188 188 184 182 180 178 179 177 171 166 179 181 175 175 172 205 211 223 206 180 189 185 171 173 168 161 162 169 190 184 172 178 185 172 179 208 171 150 146 157 158 168 226 218 97 90 89 72 64 79 72 63 164 178 138 245 206 77 301 199 179 187 191 243 296 287 268 259 256 258 255 250 250 250 248 252 255 256 258 258 257 256 253
192 185 183 184 185 187 187 183 182 182 182 182 179 176 168 175 181 177 179 177 159 199 214 208 184 191 197 184 178 177 177 176 166 185 185 174 178 190 182 191 207 184 173 187 192 195 172 174 114 92 88 109 105 106 127 137 208 216 201 200 233 250 80 249 340 344 279 234 13 322 293 273 247 229 246 260 252 249 251 249 250 251 251 256 259 259 256 253
188 179 177 178 180 184 184 184 185 183 184 184 181 178 169 173 177 174 180 204 5 180 203 207 198 197 198 193 184 179 180 169 157 189 188 177 173 178 188 206 207 195 194 189 199 219 192 133 131 109 95 112 124 157 174 173 209 226 216 211 232 317 11 360 360 0 342 336 359 23 320 293 248 196 233 250 226 231 240 238 242 249 252 254 257 260 261 259
188 179 174 175 177 179 180 185 188 185 185 186 182 175 171 173 171 172 177 223 269 170 167 196 201 200 198 193 170 156 161 177 160 183 186 177 174 172 175 195 188 209 201 182 197 227 143 143 117 116 124 119 125 208 189 168 179 248 265 335 19 31 40 15 360 9 346 297 259 128 99 283 294 210 235 221 180 214 230 228 239 248 254 255 255 261 265 267
191 184 176 174 176 175 173 181 189 186 185 188 183 170 167 172 169 170 164 350 255 171 145 176 189 193 193 180 165 154 90 163 153 172 182 177 177 176 179 161 137 247 237 112 106 286 112 136 110 112 125 123 147 217 183 164 157 244 278 348 43 67 63 32 18 342 259 305 284 174 147 269 284 223 215 210 191 204 227 234 240 245 251 256 255 256 262 271
196 189 182 177 177 175 171 177 188 187 187 190 183 169 161 166 166 164 158 305 192 150 148 170 171 179 174 167 173 168 121 149 149 175 180 178 178 179 207 199 165 190 202 129 160 297 71 151 159 146 145 146 160 261 197 164 147 255 267 349 70 76 59 68 33 305 307 345 304 182 138 239 286 251 200 199 192 194 224 235 238 245 249 249 243 240 250 257
202 195 189 184 178 175 177 180 185 189 192 190 182 173 161 159 157 149 181 229 156 131 146 162 160 164 157 162 181 169 131 149 163 166 174 178 176 171 195 228 209 191 191 178 157 357 22 155 188 147 158 170 129 19 356 133 130 199 198 66 70 76 56 61 3 336 13 327 263 179 155 213 285 281 174 170 187 196 221 231 233 241 237 217 205 210 227 232
208 201 197 192 184 180 184 187 185 188 191 188 184 178 163 157 154 153 195 204 160 117 122 149 157 156 154 157 183 174 148 123 123 143 160 175 173 171 145 168 305 176 166 97 81 87 61 52 4 71 126 131 117 59 24 70 126 155 154 82 65 62 53 45 311 74 55 285 237 171 181 195 289 294 132 159 196 191 197 209 226 230 198 167 184 198 227 236
214 209 205 201 194 189 190 191 189 187 186 182 179 175 165 157 164 190 185 191 345 123 117 150 153 154 165 163 162 180 161 110 140 146 144 161 169 191 170 147 22 50 59 33 93 128 104 76 44 100 117 120 114 72 32 46 116 129 129 116 84 8 31 27 346 69 122 261 267 172 180 186 233 267 272 216 217 194 174 168 199 222 139 160 179 205 249 261
212 216 216 210 203 199 196 195 192 186 181 177 174 170 162 154 241 219 185 92 185 172 158 176 166 160 176 170 154 173 159 135 162 162 151 159 168 188 193 185 153 119 283 204 166 71 155 185 139 104 144 168 138 85 42 9 21 122 144 130 113 343 9 343 232 144 216 244 290 133 159 209 238 243 239 237 223 214 232 255 246 273 273 265 256 256 266 271
201 210 222 220 213 208 203 198 193 187 179 172 170 167 165 186 199 209 200 165 170 186 159 160 162 162 172 173 161 164 157 152 172 167 154 162 175 194 210 211 183 178 194 171 163 135 174 309 131 108 294 210 187 139 142 244 191 178 166 142 146 165 195 240 216 214 240 248 297 23 62 259 272 275 231 232 229 221 232 254 253 253 251 257 263 264 267 276
203 206 218 228 225 217 210 202 192 187 180 169 163 160 198 205 189 202 211 196 129 78 148 149 150 158 171 179 160 157 159 158 166 163 153 162 182 200 210 221 207 201 120 154 173 168 194 279 187 167 181 186 193 198 173 155 166 194 185 157 175 173 183 210 188 210 248 287 295 317 107 217 230 283 231 226 233 227 226 233 237 243 245 252 259 259 268 284
213 214 213 222 227 219 213 208 196 186 176 169 164 169 194 196 196 208 208 183 129 104 115 135 144 155 172 187 157 161 165 153 166 168 167 177 194 195 189 205 207 200 163 182 204 163 196 249 189 155 157 167 182 220 168 121 143 212 185 185 228 210 173 173 181 180 144 341 293 224 234 221 207 262 264 271 240 218 219 223 221 230 239 244 251 254 267 281
223 221 213 215 223 217 207 205 199 187 175 170 176 196 197 199 203 208 190 138 142 133 119 130 146 160 167 174 191 181 81 98 165 171 185 194 209 202 195 196 195 196 188 184 188 138 175 259 326 39 90 161 175 267 171 128 167 196 161 196 226 136 119 155 266 52 99 265 270 196 246 271 291 272 249 230 235 220 216 222 215 219 229 239 248 255 264 273
226 221 212 212 219 216 203 198 192 184 180 181 198 198 204 217 213 206 133 126 140 136 134 148 165 177 170 162 192 181 145 114 162 173 181 187 218 207 205 206 189 194 201 192 201 176 155 200 314 19 44 294 352 1 2 42 73 125 169 209 117 42 47 124 184 350 146 249 266 198 244 267 276 278 253 199 219 230 223 221 218 219 224 236 247 255 266 274
225 223 216 213 216 215 202 191 183 180 180 190 215 207 212 218 217 207 132 133 146 147 155 170 166 181 175 168 183 176 165 162 170 184 176 171 227 205 194 203 190 195 204 198 205 274 151 174 306 348 326 300 14 31 259 7 49 113 176 276 104 104 265 146 156 239 212 238 266 254 265 266 232 243 270 204 204 215 223 223 222 221 223 234 242 248 260 268
222 222 219 217 216 213 204 193 182 176 177 195 207 209 217 213 217 214 166 145 153 166 177 173 158 187 192 176 170 169 176 178 169 179 184 179 218 199 184 191 195 195 197 195 199 323 131 185 245 317 322 345 45 182 195 170 29 44 355 337 98 136 188 174 175 192 183 215 256 277 288 274 228 207 216 218 203 197 216 220 210 217 222 231 238 238 233 227
217 217 231 226 218 213 208 197 182 169 170 209 211 211 221 214 215 217 196 171 168 186 194 180 159 176 198 181 160 164 185 189 173 182 200 183 196 211 186 182 182 181 182 187 194 123 106 195 211 312 332 342 172 211 195 178 178 190 231 229 190 139 117 146 248 199 167 196 240 279 280 267 247 190 202 205 190 188 204 207 199 215 225 229 230 223 207 201
220 219 229 219 214 212 206 194 177 164 170 205 222 223 226 247 216 217 211 195 192 203 204 196 179 174 181 181 170 165 176 184 179 189 207 188 198 234 188 175 166 153 159 177 196 179 166 187 167 148 261 216 211 218 196 183 184 189 197 201 197 182 152 166 255 228 169 205 209 228 274 269 248 127 117 133 155 168 167 165 184 202 215 217 210 203 201 207
233 242 208 204 210 209 200 188 146 146 177 198 213 214 227 321 250 218 216 205 204 214 205 201 197 184 175 181 177 160 164 182 186 188 206 207 208 214 185 176 169 161 156 171 198 184 150 125 149 174 203 198 208 66 121 113 138 191 221 211 187 176 169 174 216 220 177 237 242 224 272 271 260 75 54 85 103 96 79 56 78 201 209 205 198 198 209 316
235 253 242 215 216 205 193 179 61 168 208 236 225 222 285 348 324 233 217 203 203 207 198 199 200 196 187 179 174 164 164 182 194 193 205 214 213 212 189 177 169 163 158 155 187 163 122 105 156 201 217 114 45 45 73 60 57 324 280 233 159 188 194 180 192 195 164 215 222 204 249 265 309 11 50 84 74 52 26 333 321 276 218 202 197 204 245 323
236 252 258 224 207 196 187 172 139 184 214 223 225 246 264 311 315 277 240 212 208 196 193 204 200 204 202 179 174 176 175 186 203 201 205 207 210 215 191 176 169 165 170 177 171 160 161 170 150 155 218 290 354 350 4 7 24 215 230 207 203 204 189 178 193 172 226 224 204 194 241 250 287 1 19 58 51 346 277 275 270 239 208 202 213 242 296 318
236 247 252 219 197 189 193 197 172 178 197 169 179 226 237 270 267 256 291 298 258 227 208 216 201 200 206 179 185 185 183 195 206 198 206 205 195 228 188 176 173 177 190 190 174 163 163 178 161 164 202 219 231 221 204 199 156 216 223 204 211 207 186 186 193 188 231 233 210 205 247 252 250 47 34 29 40 261 258 256 247 230 219 222 234 259 287 304
226 226 234 221 202 198 203 196 178 171 179 175 178 206 212 224 239 240 248 284 302 300 4 324 205 197 185 161 198 204 191 202 206 188 199 199 182 350 186 178 179 182 190 185 172 161 140 189 184 188 208 219 229 220 179 153 150 195 214 202 205 209 199 193 190 206 226 239 234 227 241 260 262 238 137 319 290 250 263 250 237 253 261 249 244 265 288 294
231 220 191 199 218 218 211 185 175 183 180 179 178 173 197 212 222 227 222 227 276 288 25 357 237 196 192 185 201 213 197 204 209 196 190 178 141 37 155 178 180 176 174 174 169 154 93 205 202 207 219 227 233 216 167 159 173 197 205 200 201 204 202 202 213 222 218 219 250 242 227 254 265 250 213 250 262 251 249 237 232 247 259 256 256 271 282 281
222 253 199 190 197 219 216 187 180 187 182 181 187 168 185 203 210 209 207 216 240 238 163 309 278 222 206 195 201 212 202 204 214 210 199 165 118 98 104 354 252 169 161 169 171 151 124 202 213 215 225 236 240 222 173 171 187 193 194 196 196 198 202 209 222 230 220 207 248 255 236 243 266 267 225 229 263 268 266 266 265 268 271 271 275 278 277 274
222 255 253 215 213 182 230 213 190 186 182 179 196 202 186 195 204 205 197 199 224 218 184 215 243 237 231 213 207 211 207 206 214 214 195 148 140 149 150 290 273 207 169 155 176 164 154 202 216 213 225 242 243 233 202 193 203 196 197 198 193 198 205 210 221 229 228 231 245 258 261 256 263 270 263 262 275 281 286 286 285 287 287 286 287 284 280 278
221 237 233 230 243 221 227 227 195 193 188 179 195 210 192 196 201 203 197 181 194 205 195 213 230 222 226 238 221 222 223 215 224 224 188 161 182 185 177 180 169 176 174 157 185 206 188 211 210 189 220 247 245 241 226 205 215 231 235 230 212 209 210 212 220 225 227 238 242 251 264 265 259 265 278 281 279 282 286 283 281 283 286 287 288 287 286 285
223 227 220 231 251 213 208 212 190 208 199 185 197 195 192 208 202 193 198 196 196 197 189 207 223 217 217 231 231 242 239 147 96 197 120 142 174 160 155 176 148 146 175 172 161 173 183 218 137 130 207 242 239 231 201 135 60 293 263 250 236 226 216 206 212 216 218 229 240 247 257 262 264 270 281 281 280 281 279 279 280 281 283 287 291 290 290 289
226 230 233 242 255 209 206 201 196 217 209 191 210 202 194 211 201 183 196 204 207 209 202 207 216 210 212 222 222 231 230 160 106 97 86 90 90 70 64 138 148 148 170 164 142 165 162 169 176 152 204 244 240 188 131 108 89 252 245 239 234 231 229 224 228 228 220 213 224 239 242 254 270 278 273 277 282 276 274 280 283 284 287 294 297 295 294 293